JIA5395 KPNS-KDCA

Flight info

Callsign JIA5395
Flight time 1h 43m
Altitude 31000
Route CEW MGM KELLN Q56 KIWII WAVES CAPSS3
Aircraft CRJ9/M-SDFGIRWY/S

Departure

Time 2026-05-06 21:56
Airport Pensacola International Airport (KPNS)

Arrival

Time 2026-05-06 23:39
Airport Ronald Reagan Washington National Airport (KDCA)
Time Latitude Longitude Altitude Speed Heading
2026-05-06 21:34 30.47462 -87.19238 104 ft 0 kts 27°
2026-05-06 21:48 30.47453 -87.19243 103 ft 3 kts 27°
2026-05-06 21:48 30.47435 -87.19254 101 ft 3 kts 27°
2026-05-06 21:49 30.47417 -87.19265 100 ft 3 kts 27°
2026-05-06 21:49 30.47402 -87.19277 99 ft 0 kts 49°
2026-05-06 21:52 30.47411 -87.19255 100 ft 8 kts 84°
2026-05-06 21:52 30.47421 -87.19136 100 ft 19 kts 68°
2026-05-06 21:53 30.47465 -87.19010 98 ft 13 kts 28°
2026-05-06 21:53 30.47513 -87.19015 99 ft 11 kts 342°
2026-05-06 21:53 30.47607 -87.19043 101 ft 15 kts 347°
2026-05-06 21:53 30.47709 -87.19070 102 ft 15 kts 347°
2026-05-06 21:54 30.47810 -87.19096 104 ft 15 kts 347°
2026-05-06 21:54 30.47916 -87.19125 102 ft 17 kts 347°
2026-05-06 21:54 30.48040 -87.19158 101 ft 19 kts 346°
2026-05-06 21:54 30.48171 -87.19193 101 ft 16 kts 346°
2026-05-06 21:55 30.48248 -87.19187 102 ft 8 kts 46°
2026-05-06 21:55 30.48269 -87.19127 100 ft 10 kts 76°
2026-05-06 21:55 30.48274 -87.19069 99 ft 3 kts 120°
2026-05-06 21:55 30.48258 -87.19058 102 ft 0 kts 164°
2026-05-06 21:56 30.48116 -87.19020 99 ft 59 kts 167°
2026-05-06 21:56 30.47422 -87.18834 99 ft 142 kts 167°
2026-05-06 21:56 30.46326 -87.18558 646 ft 169 kts 167°
2026-05-06 21:56 30.45152 -87.18229 1633 ft 175 kts 169°
2026-05-06 21:57 30.43922 -87.17867 2240 ft 193 kts 169°
2026-05-06 21:57 30.42487 -87.17429 2558 ft 233 kts 167°
2026-05-06 21:57 30.40853 -87.16892 3213 ft 255 kts 167°
2026-05-06 21:57 30.39174 -87.16110 4158 ft 266 kts 147°
2026-05-06 21:58 30.38017 -87.14369 5098 ft 286 kts 111°
2026-05-06 21:58 30.37838 -87.12050 6097 ft 295 kts 81°
2026-05-06 21:58 30.38644 -87.09882 7041 ft 303 kts 53°
2026-05-06 21:58 30.40027 -87.08015 7939 ft 308 kts 41°
2026-05-06 21:59 30.41656 -87.06370 8857 ft 314 kts 38°
2026-05-06 21:59 30.43365 -87.04753 9765 ft 321 kts 37°
2026-05-06 21:59 30.45128 -87.03119 10555 ft 330 kts 37°
2026-05-06 21:59 30.46974 -87.01419 11042 ft 349 kts 36°
2026-05-06 22:00 30.48935 -86.99636 11533 ft 367 kts 37°
2026-05-06 22:00 30.50974 -86.97741 12031 ft 384 kts 37°
2026-05-06 22:00 30.53086 -86.95748 12548 ft 399 kts 37°
2026-05-06 22:00 30.55257 -86.93714 13043 ft 413 kts 37°
2026-05-06 22:01 30.57527 -86.91591 13572 ft 426 kts 37°
2026-05-06 22:01 30.59850 -86.89408 14226 ft 431 kts 37°
2026-05-06 22:01 30.62199 -86.87208 14921 ft 435 kts 36°
2026-05-06 22:01 30.64566 -86.84987 15583 ft 440 kts 36°
2026-05-06 22:02 30.66913 -86.82786 16234 ft 444 kts 36°
2026-05-06 22:02 30.69326 -86.80520 16915 ft 448 kts 35°
2026-05-06 22:02 30.71763 -86.78233 17571 ft 453 kts 35°
2026-05-06 22:02 30.74225 -86.75920 18227 ft 457 kts 34°
2026-05-06 22:03 30.76675 -86.73624 18763 ft 461 kts 34°
2026-05-06 22:03 30.79180 -86.71271 19266 ft 465 kts 34°
2026-05-06 22:03 30.81718 -86.68906 19771 ft 467 kts 31°
2026-05-06 22:03 30.84567 -86.67212 20239 ft 456 kts 11°
2026-05-06 22:04 30.87631 -86.66391 20740 ft 452 kts
2026-05-06 22:04 30.90735 -86.65782 21225 ft 454 kts
2026-05-06 22:04 30.93861 -86.65136 21723 ft 458 kts
2026-05-06 22:04 30.96999 -86.64372 22187 ft 463 kts
2026-05-06 22:05 31.00151 -86.63551 22648 ft 466 kts
2026-05-06 22:05 31.03285 -86.62739 23085 ft 469 kts
2026-05-06 22:05 31.06478 -86.61921 23524 ft 471 kts
2026-05-06 22:05 31.09686 -86.61108 23908 ft 474 kts
2026-05-06 22:06 31.12917 -86.60285 24272 ft 476 kts
2026-05-06 22:06 31.16156 -86.59456 24622 ft 478 kts
2026-05-06 22:06 31.19404 -86.58625 24965 ft 480 kts
2026-05-06 22:06 31.22679 -86.57793 25337 ft 482 kts
2026-05-06 22:07 31.25952 -86.56946 25666 ft 483 kts
2026-05-06 22:07 31.29243 -86.56110 25999 ft 485 kts
2026-05-06 22:07 31.32501 -86.55267 26294 ft 487 kts
2026-05-06 22:07 31.35809 -86.54425 26585 ft 489 kts
2026-05-06 22:08 31.39137 -86.53570 26845 ft 490 kts
2026-05-06 22:08 31.42474 -86.52709 27113 ft 492 kts
2026-05-06 22:08 31.45804 -86.51855 27705 ft 485 kts
2026-05-06 22:08 31.49085 -86.51013 28280 ft 481 kts
2026-05-06 22:09 31.52349 -86.50168 28699 ft 480 kts
2026-05-06 22:09 31.55597 -86.49333 29117 ft 479 kts
2026-05-06 22:09 31.58811 -86.48506 29543 ft 477 kts
2026-05-06 22:09 31.62051 -86.47670 29957 ft 476 kts
2026-05-06 22:10 31.65281 -86.46840 30294 ft 475 kts
2026-05-06 22:10 31.68507 -86.46003 30606 ft 475 kts
2026-05-06 22:10 31.71734 -86.45172 30788 ft 478 kts
2026-05-06 22:10 31.75003 -86.44328 30904 ft 482 kts
2026-05-06 22:11 31.81553 -86.42634 30954 ft 480 kts
2026-05-06 22:11 31.84802 -86.41788 31194 ft 478 kts
2026-05-06 22:11 31.88010 -86.40957 31481 ft 478 kts
2026-05-06 22:12 31.91252 -86.40119 31705 ft 479 kts
2026-05-06 22:12 31.94487 -86.39273 32150 ft 475 kts
2026-05-06 22:12 31.97711 -86.38439 32438 ft 474 kts
2026-05-06 22:12 32.00927 -86.37605 32716 ft 474 kts
2026-05-06 22:13 32.04144 -86.36761 33046 ft 473 kts
2026-05-06 22:13 32.07353 -86.35923 33340 ft 472 kts
2026-05-06 22:13 32.10573 -86.35093 33607 ft 473 kts
2026-05-06 22:13 32.13723 -86.34173 33870 ft 479 kts 11°
2026-05-06 22:14 32.16798 -86.32532 34100 ft 493 kts 24°
2026-05-06 22:14 32.19612 -86.30155 34330 ft 501 kts 32°
2026-05-06 22:14 32.22327 -86.27577 34550 ft 501 kts 32°
2026-05-06 22:14 32.25012 -86.24937 34737 ft 503 kts 33°
2026-05-06 22:15 32.27659 -86.22214 34861 ft 507 kts 36°
2026-05-06 22:15 32.30152 -86.19212 34927 ft 519 kts 46°
2026-05-06 22:15 32.34112 -86.12029 34978 ft 527 kts 54°
2026-05-06 22:16 32.38083 -86.04766 34973 ft 524 kts 50°
2026-05-06 22:16 32.42311 -85.97753 34971 ft 523 kts 49°
2026-05-06 22:17 32.46441 -85.90698 34967 ft 521 kts 50°
2026-05-06 22:17 32.50541 -85.83636 34976 ft 519 kts 50°
2026-05-06 22:18 32.54593 -85.76629 34989 ft 518 kts 50°
2026-05-06 22:18 32.58673 -85.69583 34999 ft 520 kts 50°
2026-05-06 22:19 32.62765 -85.62485 35000 ft 523 kts 50°
2026-05-06 22:19 32.66881 -85.55335 35006 ft 527 kts 50°
2026-05-06 22:20 32.70994 -85.48175 35003 ft 529 kts 50°
2026-05-06 22:20 32.75146 -85.40935 35007 ft 532 kts 50°
2026-05-06 22:21 32.79315 -85.33650 35000 ft 534 kts 50°
2026-05-06 22:21 32.83499 -85.26324 35001 ft 536 kts 50°
2026-05-06 22:22 32.87655 -85.19032 34996 ft 535 kts 50°
2026-05-06 22:22 32.91815 -85.11715 34992 ft 533 kts 50°
2026-05-06 22:23 32.95960 -85.04420 34985 ft 530 kts 50°
2026-05-06 22:23 33.00073 -84.97160 34988 ft 527 kts 50°
2026-05-06 22:24 33.04157 -84.89937 34988 ft 525 kts 50°
2026-05-06 22:24 33.08201 -84.82778 35002 ft 523 kts 51°
2026-05-06 22:25 33.12252 -84.75587 34995 ft 522 kts 51°
2026-05-06 22:25 33.16289 -84.68414 34994 ft 520 kts 51°
2026-05-06 22:26 33.20307 -84.61237 34981 ft 519 kts 50°
2026-05-06 22:26 33.24299 -84.54129 34980 ft 519 kts 50°
2026-05-06 22:27 33.28307 -84.46961 34981 ft 519 kts 50°
2026-05-06 22:27 33.32310 -84.39790 34981 ft 519 kts 50°
2026-05-06 22:28 33.36304 -84.32620 35029 ft 518 kts 50°
2026-05-06 22:28 33.40271 -84.25476 35032 ft 518 kts 50°
2026-05-06 22:29 33.44259 -84.18293 35021 ft 518 kts 50°
2026-05-06 22:29 33.48242 -84.11105 35009 ft 518 kts 50°
2026-05-06 22:30 33.52217 -84.03905 34975 ft 518 kts 50°
2026-05-06 22:30 33.56161 -83.96739 34975 ft 519 kts 50°
2026-05-06 22:31 33.60116 -83.89490 34967 ft 520 kts 50°
2026-05-06 22:31 33.64061 -83.82304 34966 ft 522 kts 50°
2026-05-06 22:32 33.68071 -83.75008 34967 ft 525 kts 50°
2026-05-06 22:32 33.72091 -83.67655 34970 ft 528 kts 50°
2026-05-06 22:33 33.76092 -83.60321 34989 ft 530 kts 50°
2026-05-06 22:33 33.80139 -83.52893 34990 ft 532 kts 50°
2026-05-06 22:34 33.84200 -83.45433 34986 ft 534 kts 50°
2026-05-06 22:34 33.88268 -83.37951 34967 ft 536 kts 50°
2026-05-06 22:35 33.92309 -83.30482 34957 ft 536 kts 50°
2026-05-06 22:35 33.96377 -83.22953 34961 ft 536 kts 50°
2026-05-06 22:36 34.00440 -83.15424 34956 ft 536 kts 50°
2026-05-06 22:36 34.04495 -83.07895 34981 ft 536 kts 50°
2026-05-06 22:37 34.08519 -83.00400 34961 ft 536 kts 50°
2026-05-06 22:37 34.12559 -82.92852 34958 ft 535 kts 50°
2026-05-06 22:38 34.16598 -82.85305 34960 ft 535 kts 50°
2026-05-06 22:38 34.20637 -82.77739 34954 ft 535 kts 51°
2026-05-06 22:39 34.24663 -82.70176 34967 ft 535 kts 51°
2026-05-06 22:39 34.28663 -82.62656 34976 ft 535 kts 51°
2026-05-06 22:40 34.32676 -82.55074 34975 ft 536 kts 51°
2026-05-06 22:40 34.36694 -82.47480 34977 ft 535 kts 51°
2026-05-06 22:41 34.42687 -82.36136 34969 ft 535 kts 51°
2026-05-06 22:42 34.46668 -82.28550 34971 ft 533 kts 51°
2026-05-06 22:42 34.50641 -82.20997 34988 ft 530 kts 52°
2026-05-06 22:43 34.54717 -82.13582 34974 ft 526 kts 48°
2026-05-06 22:43 34.59111 -82.06524 34970 ft 523 kts 46°
2026-05-06 22:44 34.63448 -81.99524 34958 ft 522 kts 47°
2026-05-06 22:44 34.67752 -81.92439 34973 ft 521 kts 47°
2026-05-06 22:45 34.72041 -81.85359 35008 ft 520 kts 47°
2026-05-06 22:45 34.76340 -81.78274 34976 ft 520 kts 47°
2026-05-06 22:46 34.80626 -81.71175 34966 ft 521 kts 47°
2026-05-06 22:46 34.84873 -81.64124 34959 ft 520 kts 47°
2026-05-06 22:47 34.89147 -81.57016 34963 ft 520 kts 47°
2026-05-06 22:47 34.93409 -81.49905 34975 ft 519 kts 47°
2026-05-06 22:48 34.97651 -81.42776 34981 ft 521 kts 46°
2026-05-06 22:48 35.01884 -81.35646 34969 ft 524 kts 46°
2026-05-06 22:49 35.06198 -81.28442 34972 ft 528 kts 46°
2026-05-06 22:49 35.10528 -81.21159 34971 ft 532 kts 46°
2026-05-06 22:50 35.14871 -81.13826 34976 ft 535 kts 46°
2026-05-06 22:50 35.19245 -81.06448 34992 ft 536 kts 46°
2026-05-06 22:51 35.23590 -80.99102 34973 ft 536 kts 46°
2026-05-06 22:51 35.27948 -80.91709 34974 ft 536 kts 46°
2026-05-06 22:52 35.32332 -80.84306 35002 ft 536 kts 46°
2026-05-06 22:52 35.36697 -80.76912 34998 ft 536 kts 46°
2026-05-06 22:53 35.41050 -80.69484 35022 ft 537 kts 46°
2026-05-06 22:53 35.45384 -80.62096 34762 ft 536 kts 46°
2026-05-06 22:53 35.47580 -80.58344 34411 ft 532 kts 47°
2026-05-06 22:54 35.49701 -80.54709 34074 ft 529 kts 47°
2026-05-06 22:54 35.51843 -80.51041 33695 ft 528 kts 48°
2026-05-06 22:54 35.53974 -80.47382 33305 ft 528 kts 48°
2026-05-06 22:54 35.56104 -80.43706 32919 ft 528 kts 49°
2026-05-06 22:55 35.58243 -80.40014 32542 ft 530 kts 49°
2026-05-06 22:55 35.60381 -80.36328 32172 ft 531 kts 49°
2026-05-06 22:55 35.62529 -80.32623 31798 ft 531 kts 49°
2026-05-06 22:55 35.64665 -80.28937 31553 ft 530 kts 50°
2026-05-06 22:56 35.66798 -80.25249 31312 ft 529 kts 50°
2026-05-06 22:56 35.68930 -80.21561 31133 ft 527 kts 50°
2026-05-06 22:56 35.71019 -80.17941 31049 ft 525 kts 50°
2026-05-06 22:57 35.75235 -80.10630 30980 ft 521 kts 50°
2026-05-06 22:57 35.79398 -80.03401 30983 ft 515 kts 50°
2026-05-06 22:58 35.83546 -79.96163 30993 ft 520 kts 50°
2026-05-06 22:58 35.87758 -79.88819 30967 ft 528 kts 50°
2026-05-06 22:59 35.92022 -79.81376 30971 ft 534 kts 50°
2026-05-06 22:59 35.96308 -79.73988 30963 ft 531 kts 49°
2026-05-06 23:00 36.00624 -79.66617 30947 ft 528 kts 49°
2026-05-06 23:00 36.04922 -79.59288 30981 ft 526 kts 49°
2026-05-06 23:01 36.09186 -79.51960 30963 ft 525 kts 50°
2026-05-06 23:01 36.13449 -79.44643 30958 ft 523 kts 50°
2026-05-06 23:02 36.17690 -79.37346 30886 ft 523 kts 50°
2026-05-06 23:02 36.19826 -79.33682 30573 ft 526 kts 50°
2026-05-06 23:02 36.21967 -79.29995 30222 ft 527 kts 50°
2026-05-06 23:02 36.24096 -79.26312 29865 ft 525 kts 50°
2026-05-06 23:03 36.26185 -79.22691 29628 ft 523 kts 50°
2026-05-06 23:03 36.28307 -79.19028 29369 ft 524 kts 50°
2026-05-06 23:03 36.30435 -79.15347 29154 ft 524 kts 50°
2026-05-06 23:04 36.34657 -79.08029 29023 ft 520 kts 50°
2026-05-06 23:04 36.38844 -79.00770 28992 ft 515 kts 50°
2026-05-06 23:05 36.42996 -78.93544 28975 ft 514 kts 50°
2026-05-06 23:05 36.47158 -78.86279 28986 ft 519 kts 50°
2026-05-06 23:06 36.51325 -78.78965 28957 ft 524 kts 50°
2026-05-06 23:06 36.55547 -78.71522 28944 ft 529 kts 50°
2026-05-06 23:07 36.60041 -78.64308 28929 ft 521 kts 40°
2026-05-06 23:07 36.65367 -78.58342 28940 ft 512 kts 36°
2026-05-06 23:08 36.70554 -78.52251 28956 ft 513 kts 38°
2026-05-06 23:08 36.75671 -78.46112 28939 ft 515 kts 38°
2026-05-06 23:09 36.80844 -78.39911 28949 ft 517 kts 38°
2026-05-06 23:09 36.86038 -78.33664 28947 ft 519 kts 38°
2026-05-06 23:10 36.91243 -78.27385 28953 ft 521 kts 38°
2026-05-06 23:10 36.95841 -78.21849 28931 ft 523 kts 38°
2026-05-06 23:11 37.00790 -78.15863 28921 ft 525 kts 38°
2026-05-06 23:11 37.05679 -78.09941 28917 ft 525 kts 38°
2026-05-06 23:12 37.10930 -78.03566 28574 ft 526 kts 38°
2026-05-06 23:12 37.13544 -78.00373 28200 ft 524 kts 37°
2026-05-06 23:12 37.15561 -77.97926 27927 ft 523 kts 37°
2026-05-06 23:12 37.18179 -77.94751 27563 ft 523 kts 38°
2026-05-06 23:13 37.20776 -77.91577 27218 ft 522 kts 38°
2026-05-06 23:13 37.23348 -77.88440 26877 ft 521 kts 37°
2026-05-06 23:13 37.25942 -77.85270 26538 ft 521 kts 38°
2026-05-06 23:13 37.28534 -77.82101 26186 ft 520 kts 38°
2026-05-06 23:14 37.31128 -77.78928 25784 ft 521 kts 38°
2026-05-06 23:14 37.33715 -77.75744 25408 ft 521 kts 38°
2026-05-06 23:14 37.36306 -77.72568 25016 ft 518 kts 37°
2026-05-06 23:14 37.38884 -77.69412 24625 ft 516 kts 37°
2026-05-06 23:15 37.41425 -77.66282 24241 ft 514 kts 37°
2026-05-06 23:15 37.43982 -77.63138 23858 ft 512 kts 37°
2026-05-06 23:15 37.46517 -77.60020 23481 ft 508 kts 37°
2026-05-06 23:15 37.49031 -77.56919 23025 ft 501 kts 37°
2026-05-06 23:16 37.51420 -77.53945 22584 ft 478 kts 37°
2026-05-06 23:16 37.53723 -77.51046 22167 ft 460 kts 37°
2026-05-06 23:16 37.55945 -77.48235 21748 ft 448 kts 37°
2026-05-06 23:16 37.58183 -77.45546 21373 ft 438 kts 31°
2026-05-06 23:17 37.60742 -77.43739 20991 ft 409 kts
2026-05-06 23:17 37.63454 -77.42978 20664 ft 393 kts 359°
2026-05-06 23:17 37.66129 -77.42401 20330 ft 388 kts 359°
2026-05-06 23:17 37.68795 -77.41760 19996 ft 391 kts
2026-05-06 23:18 37.71455 -77.40992 19668 ft 393 kts
2026-05-06 23:18 37.74073 -77.40166 19346 ft 392 kts
2026-05-06 23:18 37.76715 -77.39342 19024 ft 390 kts
2026-05-06 23:18 37.79340 -77.38507 18705 ft 387 kts
2026-05-06 23:19 37.81950 -77.37691 18385 ft 385 kts
2026-05-06 23:19 37.84543 -77.36890 18047 ft 382 kts
2026-05-06 23:19 37.87113 -77.36099 17681 ft 380 kts
2026-05-06 23:19 37.89663 -77.35314 17318 ft 375 kts
2026-05-06 23:20 37.92179 -77.34530 16955 ft 369 kts
2026-05-06 23:20 37.94665 -77.33768 16594 ft 368 kts
2026-05-06 23:20 37.97155 -77.33003 16250 ft 368 kts
2026-05-06 23:20 37.99641 -77.32234 15903 ft 367 kts
2026-05-06 23:21 38.01468 -77.31678 15649 ft 367 kts
2026-05-06 23:21 38.03912 -77.30932 15313 ft 366 kts
2026-05-06 23:21 38.06386 -77.30173 14974 ft 366 kts
2026-05-06 23:21 38.08837 -77.29426 14647 ft 368 kts
2026-05-06 23:22 38.11322 -77.28627 14323 ft 369 kts
2026-05-06 23:22 38.13809 -77.27829 13999 ft 369 kts
2026-05-06 23:22 38.16297 -77.27050 13672 ft 369 kts
2026-05-06 23:22 38.18791 -77.26274 13309 ft 366 kts
2026-05-06 23:23 38.21230 -77.25442 12959 ft 361 kts
2026-05-06 23:23 38.22821 -77.24850 12717 ft 358 kts 10°
2026-05-06 23:23 38.25953 -77.23643 12243 ft 354 kts 10°
2026-05-06 23:23 38.28317 -77.22750 11907 ft 355 kts 10°
2026-05-06 23:24 38.30676 -77.21857 11588 ft 354 kts 11°
2026-05-06 23:24 38.33036 -77.20969 11278 ft 353 kts 11°
2026-05-06 23:24 38.35384 -77.20082 10959 ft 351 kts 11°
2026-05-06 23:24 38.36967 -77.19480 10782 ft 348 kts 11°
2026-05-06 23:25 38.39238 -77.18603 10671 ft 346 kts 11°
2026-05-06 23:25 38.41551 -77.17706 10578 ft 350 kts 11°
2026-05-06 23:25 38.43899 -77.16801 10492 ft 353 kts 11°
2026-05-06 23:25 38.46248 -77.15895 10405 ft 349 kts 12°
2026-05-06 23:26 38.48509 -77.15010 10309 ft 331 kts 11°
2026-05-06 23:26 38.50705 -77.14161 10206 ft 326 kts 11°
2026-05-06 23:26 38.52853 -77.13333 10166 ft 320 kts 11°
2026-05-06 23:26 38.54989 -77.12519 10134 ft 320 kts 11°
2026-05-06 23:27 38.57120 -77.11711 10120 ft 320 kts 11°
2026-05-06 23:27 38.59244 -77.10887 10083 ft 320 kts 11°
2026-05-06 23:27 38.61400 -77.10052 9807 ft 326 kts 11°
2026-05-06 23:27 38.63520 -77.09229 9482 ft 319 kts 11°
2026-05-06 23:28 38.65606 -77.08412 9118 ft 309 kts 11°
2026-05-06 23:28 38.67643 -77.07606 8716 ft 304 kts 11°
2026-05-06 23:28 38.69657 -77.06896 8358 ft 295 kts
2026-05-06 23:28 38.71659 -77.06618 8022 ft 287 kts 356°
2026-05-06 23:29 38.73639 -77.06484 7709 ft 282 kts 355°
2026-05-06 23:29 38.75587 -77.06391 7425 ft 276 kts 353°
2026-05-06 23:29 38.77376 -77.06906 7078 ft 257 kts 327°
2026-05-06 23:29 38.78905 -77.08014 6749 ft 250 kts 321°
2026-05-06 23:30 38.80350 -77.09238 6471 ft 248 kts 319°
2026-05-06 23:30 38.81754 -77.10467 6220 ft 245 kts 319°
2026-05-06 23:30 38.83142 -77.11706 6086 ft 244 kts 317°
2026-05-06 23:30 38.84424 -77.13101 6042 ft 245 kts 311°
2026-05-06 23:31 38.85645 -77.14640 6019 ft 247 kts 310°
2026-05-06 23:31 38.86851 -77.16210 6021 ft 248 kts 309°
2026-05-06 23:31 38.88051 -77.17788 6015 ft 246 kts 310°
2026-05-06 23:31 38.89262 -77.19340 6005 ft 245 kts 310°
2026-05-06 23:32 38.90475 -77.20861 5890 ft 244 kts 311°
2026-05-06 23:32 38.91694 -77.22371 5522 ft 242 kts 311°
2026-05-06 23:32 38.92893 -77.23870 5157 ft 240 kts 311°
2026-05-06 23:32 38.94071 -77.25348 4803 ft 239 kts 311°
2026-05-06 23:33 38.95249 -77.26854 4441 ft 238 kts 311°
2026-05-06 23:33 38.96412 -77.28360 4067 ft 237 kts 311°
2026-05-06 23:33 38.97707 -77.29651 3753 ft 240 kts 335°
2026-05-06 23:33 38.99383 -77.29836 3540 ft 249 kts
2026-05-06 23:34 39.00570 -77.29164 3411 ft 254 kts 36°
2026-05-06 23:34 39.01618 -77.27343 3245 ft 258 kts 71°
2026-05-06 23:34 39.01710 -77.25093 3211 ft 251 kts 107°
2026-05-06 23:34 39.01048 -77.23070 3204 ft 243 kts 118°
2026-05-06 23:35 39.00264 -77.21175 3136 ft 237 kts 129°
2026-05-06 23:35 38.99508 -77.19865 3085 ft 231 kts 133°
2026-05-06 23:35 38.98528 -77.18247 2986 ft 223 kts 132°
2026-05-06 23:35 38.97638 -77.16676 2883 ft 218 kts 129°
2026-05-06 23:36 38.96803 -77.15073 2795 ft 216 kts 127°
2026-05-06 23:36 38.95845 -77.13611 2602 ft 213 kts 146°
2026-05-06 23:36 38.94620 -77.12601 2438 ft 207 kts 155°
2026-05-06 23:36 38.93383 -77.11674 2207 ft 202 kts 155°
2026-05-06 23:37 38.92228 -77.10786 2063 ft 180 kts 153°
2026-05-06 23:37 38.91342 -77.09819 1838 ft 155 kts 136°
2026-05-06 23:37 38.90783 -77.08703 1510 ft 147 kts 122°
2026-05-06 23:37 38.90350 -77.07510 1172 ft 149 kts 121°
2026-05-06 23:38 38.89735 -77.06504 885 ft 139 kts 144°
2026-05-06 23:38 38.89010 -77.05752 686 ft 133 kts 141°
2026-05-06 23:38 38.88334 -77.04933 543 ft 130 kts 141°
2026-05-06 23:38 38.87658 -77.04222 317 ft 125 kts 154°
2026-05-06 23:39 38.86812 -77.03958 198 ft 127 kts 175°
2026-05-06 23:39 38.85953 -77.03856 43 ft 121 kts 177°
2026-05-06 23:39 38.85248 -77.03786 21 ft 77 kts 175°
2026-05-06 23:39 38.84945 -77.03765 21 ft 24 kts 192°
2026-05-06 23:40 38.84881 -77.03861 19 ft 2 kts 269°
2026-05-06 23:40 38.84881 -77.03865 19 ft 0 kts 269°
2026-05-06 23:40 38.84881 -77.03868 19 ft 1 kts 269°
2026-05-06 23:40 38.84881 -77.03876 19 ft 1 kts 269°
2026-05-06 23:41 38.84880 -77.03920 19 ft 7 kts 288°
2026-05-06 23:41 38.84928 -77.03952 21 ft 10 kts 350°
2026-05-06 23:41 38.85015 -77.03962 19 ft 15 kts 355°
2026-05-06 23:41 38.85126 -77.03973 19 ft 17 kts 355°
2026-05-06 23:42 38.85249 -77.03986 20 ft 18 kts 354°
2026-05-06 23:42 38.85366 -77.03998 22 ft 14 kts 356°
2026-05-06 23:42 38.85448 -77.04007 23 ft 11 kts 355°
2026-05-06 23:42 38.85532 -77.04024 24 ft 13 kts 347°
2026-05-06 23:43 38.85627 -77.04040 27 ft 14 kts 356°
2026-05-06 23:43 38.85713 -77.04090 28 ft 13 kts 321°
2026-05-06 23:43 38.85735 -77.04173 27 ft 5 kts 253°
2026-05-06 23:43 38.85727 -77.04207 27 ft 3 kts 261°
2026-05-06 23:44 38.85732 -77.04231 26 ft 3 kts 304°
2026-05-06 23:44 38.85746 -77.04250 26 ft 3 kts 319°
2026-05-06 23:44 38.85757 -77.04261 26 ft 1 kts 320°